Terminal Aerodrome Forecast
Issued by NWS Boston, MA

Home | Current Version | Previous Version | Text Only | Print | Product List | Glossary On
Versions: 1 2 3 4 5 6 7 8 9 10 11 12 13 14 15 16 17 18 19 20 21 22 23 24 25 26 27 28 29 30 31 32 33 34 35 36 37 38 39 40 41 42
000
FTUS41 KBOX 281513 AAB
TAFORH
TAF AMD
KORH 281513Z 2815/2912 02010G18KT 1SM -SN BKN007 OVC013
     FM281800 36010KT 2SM -SN OVC010
     FM282300 36007KT P6SM OVC015
     FM290200 33007KT P6SM BKN025
     FM290900 33008KT P6SM SCT030=

USA.gov is the U.S. government's official web portal to all federal, state and local government web resources and services.